Flag for Poland Weather past 2 weeks in Bydgoszcz, Poland

Now
44 °F

Clear.


Feels Like: 44 °F
Forecast: 55 / 66 °F
Wind: No wind

Location: Torun

Current Time: Apr 25, 2015 at 3:12:30 AM

Latest Report: Apr 25, 2015 at 2:00 AM


Visibility: 8 mi

Pressure: 29.88 "Hg

Humidity: 81%

Dew point: 38 °F

Location of BydgoszczLocation

Historic Weather in Bydgoszcz — Graph

°F

Bydgoszcz temperature yesterday

Maximum temperature yesterday: 65 °F (at 4:00 PM)
Minimum temperature yesterday: 42 °F (at 6:00 AM)
Average temperature yesterday: 54 °F

Past Weeks' High & Low Weather Summary

 TemperatureHumidityPressure
High70 °F (Apr 11, 3:00 PM)95% (Apr 22, 6:00 AM)30.35 "Hg (Apr 22, 6:00 AM)
Low29 °F (Apr 22, 6:00 AM)29% (Apr 21, 1:00 PM)29.70 "Hg (Apr 15, 11:00 PM)
Average49 °F60%30.06 "Hg
* Reported Apr 10 1:00 AM — Apr 25 1:00 AM, Bydgoszcz, Weather by CustomWeather, © 2015

Note: Actual official high and low records may vary slightly from our data, if they occured in-between our weather recording intervals... More about our weather records

Advertising

Bydgoszcz weather history for previous 24 hours

 ConditionsComfort  
Time TempWeatherWind HumidityBarometerVisibility
1:00 AM
Sat, Apr 25
45 °FClear.1 mph79%29.88 "Hg9 mi
12:00 AM46 °FPassing clouds.1 mph76%29.88 "Hg10 mi
10:00 PM
Fri, Apr 24
50 °FClear.1 mph70%29.88 "Hg19 mi
9:00 PM54 °FPassing clouds.1 mph60%29.88 "Hg31 mi
8:00 PM60 °FPassing clouds.1 mph48%29.87 "Hg31 mi
7:00 PM64 °FScattered clouds.2 mph41%29.87 "Hg28 mi
6:00 PM65 °FScattered clouds.2 mph41%29.87 "Hg25 mi
5:00 PM65 °FPartly sunny.2 mph42%29.88 "Hg31 mi
4:00 PM65 °FPartly sunny.2 mph42%29.89 "Hg25 mi
3:00 PM64 °FPartly sunny.2 mph45%29.90 "Hg19 mi
2:00 PM62 °FPartly sunny.3 mph50%29.92 "Hg19 mi
1:00 PM61 °FPartly sunny.2 mph50%29.93 "Hg19 mi
12:00 PM59 °FScattered clouds.2 mph58%29.94 "Hg19 mi
11:00 AM55 °FPartly sunny.2 mph64%29.95 "Hg16 mi
10:00 AM54 °FPartly sunny.2 mph69%29.94 "Hg16 mi
9:00 AM51 °FPartly sunny.2 mph76%29.94 "Hg12 mi
8:00 AM47 °FOvercast.2 mph84%29.93 "Hg9 mi
7:00 AM45 °FLow clouds.1 mph88%29.92 "Hg7 mi
6:00 AM42 °FPassing clouds.1 mph89%29.90 "Hg6 mi
5:00 AM43 °FPassing clouds.1 mph86%29.90 "Hg9 mi
4:00 AM44 °FClear.1 mph80%29.89 "Hg12 mi
3:00 AM45 °FClear.2 mph78%29.90 "Hg14 mi
Weather by CustomWeather, © 2015

See weather overviewHow to use our weather pages